This demonstration page uses our WeatherBlox Daily Observations layout. Learn more.

Left ArrowRight Arrow

39.08367, -84.50855

Hourly Observations for December 16, 2017

Temp ( °F °C ) Dew Point ( °F °C ) Humidity (%) Winds ( mph kmh ) Pressure ( in mb ) Visibility ( mi km ) Precip ( " mm )
12:53 am 00:53 Cloudy 34 1.1 24 -4.4 67 67 SSW 10 17 30.13 1020 10 16 N/A
1:53 am 01:53 Cloudy 34 1.1 24 -4.4 67 67 SSW 15 24 30.11 1020 10 16 N/A
2:53 am 02:53 Mostly Cloudy 33 0.6 24 -4.4 70 70 SSW 9 15 30.14 1021 10 16 N/A
3:53 am 03:53 Cloudy 34 1.1 24 -4.4 67 67 SW 8 13 30.13 1020 10 16 N/A
4:53 am 04:53 Cloudy 34 1.1 25 -3.9 70 70 SSW 8 13 30.11 1020 10 16 N/A
5:53 am 05:53 Cloudy 34 1.1 25 -3.9 70 70 SSW 10 17 30.11 1020 10 16 N/A
6:53 am 06:53 Partly Cloudy 32 undefined 25 -3.9 75 75 S 8 13 30.12 1020 10 16 N/A
7:53 am 07:53 Mostly Sunny 31 -0.6 24 -4.4 76 76 SSW 8 13 30.12 1020 10 16 N/A
8:53 am 08:53 Sunny 34 1.1 26 -3.3 73 73 SSW 9 15 30.11 1020 10 16 N/A
9:53 am 09:53 Sunny 37 2.8 27 -2.8 67 67 SSW 13 20 30.14 1021 10 16 N/A
10:53 am 10:53 Sunny 41 5 28 -2.2 60 60 SSW 12 19 30.13 1020 10 16 N/A
11:53 am 11:53 Sunny 46 7.8 28 -2.2 50 50 SW 21 33 30.11 1020 10 16 N/A
12:53 pm 12:53 Sunny 48 8.9 29 -1.7 48 48 SW 15 24 30.09 1019 10 16 N/A
1:53 pm 13:53 Sunny 50 10 29 -1.7 44 44 SSW 17 28 30.08 1019 10 16 N/A
2:53 pm 14:53 Sunny 50 10 29 -1.7 44 44 SSW 16 26 30.07 1018 10 16 N/A
3:53 pm 15:53 Sunny 50 10 29 -1.7 44 44 S 12 19 30.07 1018 10 16 N/A
4:53 pm 16:53 Sunny 48 8.9 28 -2.2 46 46 SSW 10 17 30.09 1019 10 16 N/A
5:53 pm 17:53 Clear 45 7.2 28 -2.2 52 52 S 14 22 30.10 1019 10 16 N/A
6:53 pm 18:53 Clear 42 5.6 28 -2.2 58 58 S 10 17 30.11 1020 10 16 N/A
7:53 pm 19:53 Clear 41 5 28 -2.2 60 60 SSW 7 11 30.13 1020 10 16 N/A
8:53 pm 20:53 Clear 39 3.9 28 -2.2 65 65 SSW 7 11 30.14 1021 10 16 N/A
9:53 pm 21:53 Clear 37 2.8 28 -2.2 70 70 SSW 3 6 30.16 1022 10 16 N/A
10:53 pm 22:53 Clear 35 1.7 28 -2.2 76 76 N N/A 30.19 1022 10 16 N/A
11:53 pm 23:53 Clear 32 undefined 27 -2.8 82 82 N N/A 30.21 1023 10 16 N/A

Powered by AerisWeather